VK1ET-13 Weather Reports


Display with metric or nautical units.
time (UTC)temp
F
wind
direction
speed
MPH
gust
MPH
rain 1hr
in
rain 24hr
in
rain mn
in
humidity
%
barometer
mb
20260502233530 61 169 2.0 5.0 0.00 0.00 0.00 91 1021.6
20260502232519 60 160 3.0 6.0 0.00 0.00 0.00 94 1021.5
20260502231529 59 161 2.0 4.0 0.00 0.00 0.00 94 1021.6
20260502230517 59 187 3.0 5.0 0.00 0.00 0.00 94 1021.7
20260502225525 59 183 2.0 6.0 0.00 0.00 0.00 94 1021.6
20260502224535 59 186 3.0 5.0 0.00 0.00 0.00 94 1021.6
20260502223523 59 165 4.0 5.0 0.00 0.00 0.00 94 1021.6
20260502222533 58 169 3.0 5.0 0.00 0.00 0.00 95 1021.5
20260502221522 58 190 4.0 7.0 0.00 0.00 0.00 96 1021.6
20260502220530 58 198 3.0 5.0 0.00 0.00 0.00 96 1021.2
20260502215526 58 224 2.0 4.0 0.00 0.00 0.00 95 1021.2
20260502214528 58 183 2.0 3.0 0.00 0.00 0.00 95 1020.9
20260502213517 57 124 1.0 3.0 0.00 0.00 0.00 95 1020.9
20260502212526 57 133 3.0 4.0 0.00 0.00 0.00 95 1020.8
20260502211542 57 163 4.0 6.0 0.00 0.00 0.00 95 1020.9
20260502210523 57 176 1.0 5.0 0.00 0.00 0.00 95 1021.0
20260502205533 57 195 2.0 4.0 0.00 0.00 0.00 96 1020.9
20260502204520 57 178 1.0 3.0 0.00 0.00 0.00 96 1020.5
20260502203529 57 158 2.0 4.0 0.00 0.00 0.00 96 1020.4
20260502202524 57 166 2.0 3.0 0.00 0.00 0.00 96 1020.4
20260502201527 57 160 4.0 5.0 0.00 0.00 0.00 96 1020.5
20260502200543 57 164 4.0 5.0 0.00 0.00 0.00 96 1020.3
20260502195524 57 150 2.0 4.0 0.00 0.00 0.00 96 1020.3
20260502194534 58 204 0.0 2.0 0.00 0.00 0.00 96 1020.1
20260502193522 58 1 1.0 2.0 0.00 0.00 0.00 96 1020.1
20260502192532 58 319 0.0 2.0 0.00 0.00 0.00 95 1020.0
20260502191527 58 34 1.0 3.0 0.00 0.00 0.00 95 1020.0
20260502190530 58 258 0.0 2.0 0.00 0.00 0.00 95 1020.2
20260502185518 58 164 1.0 3.0 0.00 0.00 0.00 95 1020.0
20260502184534 59 206 1.0 2.0 0.00 0.00 0.00 94 1020.0
20260502183536 59 120 0.0 2.0 0.00 0.00 0.00 94 1020.0
20260502182531 59 246 0.0 2.0 0.00 0.00 0.00 93 1019.9
20260502181533 59 351 1.0 3.0 0.00 0.00 0.00 93 1019.8
20260502180522 59 355 2.0 3.0 0.00 0.00 0.00 93 1019.9
20260502163523 61 150 1.0 2.0 0.00 0.00 0.00 89 1020.7
20260502162538 61 181 0.0 2.0 0.00 0.00 0.00 88 1020.6
20260502161520 61 337 1.0 2.0 0.00 0.00 0.00 88 1020.6
20260502160529 62 354 0.0 2.0 0.00 0.00 0.00 87 1020.6
20260502151533 63 185 1.0 2.0 0.00 0.00 0.00 83 1021.2
20260502150529 64 208 2.0 3.0 0.00 0.00 0.00 82 1021.4
20260502130528 65 47 1.0 3.0 0.00 0.00 0.00 78 1022.1
20260502123535 66 194 1.0 2.0 0.00 0.00 0.00 75 1022.4
20260502122521 66 43 2.0 5.0 0.00 0.00 0.00 75 1022.3
20260502121537 66 25 1.0 3.0 0.00 0.00 0.00 75 1022.5
20260502120519 66 247 0.0 2.0 0.00 0.00 0.00 75 1022.4
20260502115529 66 184 0.0 2.0 0.00 0.00 0.00 74 1022.4
20260502114517 66 53 0.0 2.0 0.00 0.00 0.00 75 1022.4
20260502113526 66 235 1.0 3.0 0.00 0.00 0.00 74 1022.4
20260502112534 67 163 1.0 2.0 0.00 0.00 0.00 73 1022.4
20260502111524 67 46 1.0 4.0 0.00 0.00 0.00 73 1022.4
20260502110531 67 54 2.0 6.0 0.00 0.00 0.00 73 1022.1
20260502105527 67 60 1.0 3.0 0.00 0.00 0.00 72 1022.1
20260502104531 67 12 1.0 3.0 0.00 0.00 0.00 71 1022.2
20260502103525 68 69 1.0 6.0 0.00 0.00 0.00 70 1022.1
20260502102527 68 59 1.0 2.0 0.00 0.00 0.00 69 1022.0
20260502100532 68 46 2.0 7.0 0.00 0.00 0.00 69 1021.9
20260502091527 69 29 4.0 11.0 0.00 0.00 0.00 67 1021.5
20260502090517 69 28 2.0 8.0 0.00 0.00 0.00 66 1021.5
20260502071535 70 245 0.0 2.0 0.00 0.00 0.00 68 1020.8
20260502070530 70 348 1.0 3.0 0.00 0.00 0.00 67 1020.7
20260502065532 70 75 1.0 2.0 0.00 0.00 0.00 67 1020.8
20260502064520 70 303 0.0 1.0 0.00 0.00 0.00 67 1020.7
20260502063529 70 105 1.0 2.0 0.00 0.00 0.00 66 1020.6
20260502062519 71 85 1.0 2.0 0.00 0.00 0.00 66 1020.7
20260502061528 71 198 0.0 2.0 0.00 0.00 0.00 65 1020.7
20260502060536 71 208 0.0 1.0 0.00 0.00 0.00 65 1020.8
20260502055524 71 144 1.0 3.0 0.00 0.00 0.00 64 1020.8
20260502054533 71 132 1.0 3.0 0.00 0.00 0.00 63 1020.8
20260502053521 71 85 1.0 3.0 0.00 0.00 0.00 63 1020.8
20260502052530 71 333 0.0 1.0 0.00 0.00 0.00 63 1020.9
20260502051519 71 199 1.0 2.0 0.00 0.00 0.00 63 1021.0
20260502050543 71 215 1.0 2.0 0.00 0.00 0.00 62 1021.1
20260502045518 71 121 1.0 2.0 0.00 0.00 0.00 63 1021.1
20260502044527 71 178 1.0 2.0 0.00 0.00 0.00 63 1021.2
20260502043537 71 215 2.0 4.0 0.00 0.00 0.00 63 1021.3
20260502042525 71 204 1.0 3.0 0.00 0.00 0.00 62 1021.5
20260502041534 71 195 2.0 5.0 0.00 0.00 0.00 64 1021.7
20260502040522 70 196 3.0 5.0 0.00 0.00 0.00 63 1021.7
20260502035531 70 252 2.0 4.0 0.00 0.00 0.00 63 1021.7
20260502034519 70 222 2.0 4.0 0.00 0.00 0.00 63 1021.8
20260502033529 69 230 3.0 5.0 0.00 0.00 0.00 65 1022.0
20260502032517 70 258 2.0 4.0 0.00 0.00 0.00 65 1022.4
20260502031528 70 215 3.0 4.0 0.00 0.00 0.00 65 1022.3
20260502030534 70 213 3.0 6.0 0.00 0.00 0.00 64 1022.5
20260502025529 70 296 2.0 5.0 0.00 0.00 0.00 63 1022.6
20260502024532 70 280 3.0 7.0 0.00 0.00 0.00 63 1022.8
20260502023520 70 306 3.0 6.0 0.00 0.00 0.00 63 1023.0
20260502022529 69 357 3.0 5.0 0.00 0.00 0.00 65 1023.3
20260502021525 67 247 2.0 4.0 0.00 0.00 0.00 67 1023.4
20260502020528 67 295 2.0 4.0 0.00 0.00 0.00 67 1023.7
20260502015535 66 315 2.0 6.0 0.00 0.00 0.00 68 1023.9
20260502014532 66 99 1.0 4.0 0.00 0.00 0.00 69 1024.1
20260502013535 66 187 2.0 5.0 0.00 0.00 0.00 70 1024.2
20260502012523 65 230 1.0 3.0 0.00 0.00 0.00 70 1024.5
20260502011532 64 161 2.0 5.0 0.00 0.00 0.00 71 1024.7
20260502010526 64 308 3.0 7.0 0.00 0.00 0.00 71 1024.9
20260502005527 64 209 2.0 5.0 0.00 0.00 0.00 73 1024.9
20260502004537 63 188 3.0 6.0 0.00 0.00 0.00 73 1024.9
20260502003526 63 194 2.0 5.0 0.00 0.00 0.00 76 1025.0
20260502002535 62 214 2.0 5.0 0.00 0.00 0.00 79 1025.1
20260502001524 62 200 2.0 5.0 0.00 0.00 0.00 81 1025.3
20260502000534 62 190 2.0 5.0 0.00 0.00 0.00 82 1025.3
20260501235521 60 157 3.0 4.0 0.00 0.00 0.00 85 1025.3
20260501234607 59 159 3.0 6.0 0.00 0.00 0.00 89 1025.3